COSMOS 1275 DEB, 42155

Orbit data source: Space-Track

COSMOS 1275 DEB, 42155 is space debris in LEO originally from a launch on Thu, 04 Jun 1981 UTC launched from the Plesetsk Missile And Space Complex (PKMTR). Debris objects in space refer to the collection of defunct objects orbiting the Earth. Examples of debris include non-operational satellites, rocket bodies, and fragments generated from explosions, collisions, or faulty payload assembly.

Loading next visibility...
Identifier
42155, 1981-053RT
Orbit
LEO
Country
Flag of CISCIS
Related business
Manufacturer
Unknown
Mission
Spacecraft
Bus & Motor
Unknown
Mass
Unknown
Launch date (UTC)
1981-06-04 (45 years ago)
Launch vehicle
Unknown
Launch site
Plesetsk Missile And Space Complex (PKMTR)
Object type
Payload
Rocket body
Debris
Shape & HBR
Unknown shape, 0.1 m
Radar Cross Section
Small (<0.1 m²)

Expand to show TLE details & history
Last TLE update: 5 days ago

TLE from 5 days ago
0 COSMOS 1275 DEB
1 42155U 81053RT  26250.51581790  .00001444  00000-0  73996-3 0  9995
2 42155  82.9103 180.8339 0037912 245.5603 114.1618 14.14503184656326
Epoch: 2026-09-07T12:22Z
TLE epoch observation values (Epoch: 2026-09-07T12:22:46.666Z)
Latitude
-0.00004°
Longitude
8.54398°
Altitude
858.252 km
Speed
7.418 km/s
True Right ascension
12h 03m 20s
True Declination
0° 00' 00"
Sunlit
Object was in daylight at epoch
Visualization orbit readout
Latitude
Unknown
Longitude
Unknown
Altitude
Unknown
Speed
Unknown
Apparent Right ascension
Unknown
Apparent Declination
Unknown
Sunlit
N/A
Visualization observer readout
Local Sidereal Time
04:44:37
Azimuth
Unknown
Elevation
Unknown
Doppler factor
Unknown
Orbital elements
Apogee altitude
868.468 km
Perigee altitude
813.729 km
Semi-major axis
7,219.235 km
Eccentricity
0.00379
Inclination
82.9103°
RAAN
180.8339°
Arg. of periapsis
245.5603°
True anomaly
114.55741°
Mean anomaly
114.1618°
Eccentric anomaly
114.35968°
Mean motion
3.5384 °/min
Orbital period
101.74 mins
BSTAR
0.00073996
Loading maneuver chart data...
Computing Atmospheric mass density...
Loading historical data...
Loading historical data...
Loading historical data...
Loading historical data...
Loading historical data...
Loading historical data...
Loading historical data...

Documentation

Showing up to 5 results
|